x

Corpus Christi, Tx - 60nm Sse Of Corpus Christi, Tx (42020) Wave Buoy

3:50pm - Tue 16th Oct 2018 All times are CDT. -5 hours from GMT.

  • Sig Wave height 4.3ft
  • Swell Direction
  • Peak Period 6s
  • Average Period 4s
  • Wind
    22mph, 29mph gusts
  • Sea Temp 83°f
  • Air Temp 65°f
  • Sea Pressure 1016.7mb
  • Corpus Christi, Tx - 60nm Sse Of Corpus Christi, Tx
  • Corpus Christi, Tx - 60nm Sse Of Corpus Christi, Tx

More Historic Weather Station data

Upgrade to MSW Pro to gain access to the past 30 days of data for over 8000 Wavebouys and Weather Stations around the globe.

Join

Comparision Forecast

View Surf forecast
   
Tue 10/16 3:50pm 4.5ft 6s 4s 22 29 mph 1016.7mb 83f 65f
3:40pm  -   -   -  22 27 mph 1016.7mb 83f 65f
3:30pm  -   -   -  22 27 mph 1016.7mb 83f 65f
3:20pm  -   -   -  22 29 mph 1016.7mb 83f 64f
3:10pm  -   -   -  20 29 mph 1016.8mb 83f 65f
3:00pm  -   -   -  20 27 mph 1017.1mb 83f 65f
2:50pm 4.5ft 6s 5s 22 29 mph 1017.2mb 83f 64f
2:40pm  -   -   -  22 29 mph 1017.2mb - 65f
2:30pm  -   -   -  22 29 mph 1017mb 83f 65f
2:20pm  -   -   -  22 29 mph 1017.2mb 83f 65f
2:10pm  -   -   -  22 27 mph 1017.4mb 83f 65f
2:00pm  -   -   -  20 27 mph 1017.6mb - 65f
1:50pm 5ft 7s 5s 22 29 mph 1017.8mb 83f 65f
1:40pm  -   -   -  20 27 mph 1018.2mb 83f 65f
1:30pm  -   -   -  20 27 mph 1018.5mb 83f 65f
1:20pm  -   -   -  20 25 mph 1018.4mb - 65f
1:10pm  -   -   -  20 25 mph 1018.7mb 83f 65f
1:00pm  -   -   -  18 25 mph 1018.6mb 83f 64f
12:50pm 5ft 5s 5s 20 27 mph 1018.8mb 83f 64f
12:40pm  -   -   -  18 25 mph 1018.7mb 83f 64f
12:30pm  -   -   -  20 27 mph 1018.8mb 83f 64f
12:20pm  -   -   -  20 27 mph 1018.9mb 83f 64f
12:10pm  -   -   -  20 25 mph 1019.1mb 83f 64f
12:00pm  -   -   -  20 27 mph 1019.1mb 83f 64f
11:20am  -   -   -  20 25 mph 1019.2mb 83f 63f
11:10am  -   -   -  20 27 mph 1019.2mb 83f 63f
11:00am  -   -   -  20 27 mph 1019mb - 63f
10:50am 6ft 6s 5s 20 27 mph 1018.9mb 83f 62f
10:40am  -   -   -  20 25 mph 1019mb - 63f
10:30am  -   -   -  22 27 mph 1019mb 83f 62f
10:20am  -   -   -  22 29 mph 1019mb 83f 62f
10:10am  -   -   -  22 29 mph 1018.9mb 83f 62f
10:00am  -   -   -  22 29 mph 1018.8mb 83f 62f
9:50am 5.5ft 6s 5s 22 29 mph 1018.7mb 83f 62f
9:40am 5.5ft  -  5s 22 29 mph 1018.7mb 83f 62f
9:30am  -   -   -  22 29 mph 1018.5mb 83f 62f
9:20am  -   -   -  22 31 mph 1018.3mb 83f 62f
9:10am  -   -   -  25 31 mph 1018.2mb - 62f
9:00am  -   -   -  25 31 mph 1018mb 83f 62f
8:50am 6.5ft 6s 5s 27 31 mph 1018mb 83f 62f
8:40am  -   -   -  25 31 mph 1018.1mb 83f 63f
8:30am  -   -   -  25 31 mph 1018mb 83f 62f
8:20am  -   -   -  27 31 mph 1018.1mb 83f 62f
8:10am  -   -   -  27 31 mph 1017.9mb 83f 63f
8:00am  -   -   -  27 34 mph 1017.7mb - 62f
7:50am 6.5ft 6s 5s 27 34 mph 1017.7mb 82f 62f
7:40am  -   -   -  27 31 mph 1017.9mb 82f 62f
7:30am  -   -   -  27 34 mph 1017.7mb 82f 62f
7:20am  -   -   -  27 34 mph 1017.5mb 83f 62f
7:10am  -   -   -  27 36 mph 1017.3mb 83f 62f
7:00am  -   -   -  27 34 mph 1017.2mb 83f -
6:50am 6ft 5s 5s 27 36 mph 1017.1mb 83f 62f
6:40am  -   -   -  27 31 mph 1017.1mb 83f 62f
6:30am  -   -   -  27 31 mph 1017.2mb 83f 63f
6:20am  -   -   -  27 34 mph 1017mb 83f 63f
6:10am  -   -   -  25 34 mph 1017mb 83f 63f
6:00am  -   -   -  25 31 mph 1017mb 83f 63f
5:50am 6ft 7s 5s 25 31 mph 1016.9mb 83f 63f
5:40am  -   -   -  25 31 mph 1017mb 83f 64f
5:30am  -   -   -  25 31 mph 1016.8mb - 64f
5:20am  -   -   -  25 29 mph 1016.8mb 83f 63f
5:10am  -   -   -  25 29 mph 1016.9mb 83f 64f
5:00am  -   -   -  25 29 mph 1016.8mb 83f 63f
4:50am 6.5ft 7s 5s 22 29 mph 1016.9mb 83f 63f
4:40am  -   -   -  22 29 mph 1016.8mb 83f 63f
4:30am  -   -   -  25 29 mph 1016.7mb 83f 64f
4:20am  -   -   -  25 34 mph 1016.5mb 83f 64f
4:10am  -   -   -  25 34 mph 1016.5mb 83f 64f
4:00am  -   -   -  22 31 mph 1016.8mb 83f 64f
3:50am 6ft 7s 5s 22 29 mph 1016.7mb 83f 64f
3:40am 6ft  -  5s 22 29 mph 1016.8mb 83f 63f
3:30am  -   -   -  22 31 mph 1016.7mb 83f 63f
3:20am  -   -   -  25 31 mph 1016.6mb 83f 64f
3:10am  -   -   -  25 31 mph 1016.7mb 83f 64f
3:00am  -   -   -  22 29 mph 1016.7mb 83f 64f
2:20am  -   -   -  25 31 mph 1017.3mb 83f 64f
2:10am  -   -   -  27 34 mph 1017.1mb 83f 65f
2:00am  -   -   -  27 34 mph 1017mb 83f 64f
1:50am 6ft 7s 5s 27 34 mph 1016.9mb 83f 64f
1:40am  -   -   -  27 31 mph 1017.2mb 83f 65f
1:30am  -   -   -  27 34 mph 1017.3mb 83f 65f
1:20am  -   -   -  25 29 mph 1017.3mb 83f 65f
1:10am  -   -   -  22 29 mph 1017.6mb 83f 65f
1:00am  -   -   -  25 29 mph 1017.8mb 83f -
12:50am 7ft 7s 5s 25 31 mph 1017.5mb 83f 66f
12:40am  -   -   -  27 31 mph 1017.2mb 83f 66f
12:30am  -   -   -  25 31 mph 1017.1mb 83f 66f
12:20am  -   -   -  25 31 mph 1017.1mb 83f 66f
12:10am  -   -   -  27 34 mph 1016.7mb 83f 66f
12:00am  -   -   -  25 31 mph 1016.8mb - -
Mon 10/15 11:50pm 6ft 7s 5s 25 31 mph 1016.5mb 83f 67f
11:40pm  -   -   -  25 29 mph 1016.7mb 83f 67f
11:30pm  -   -   -  25 31 mph 1016.8mb 83f -
11:20pm  -   -   -  27 31 mph 1016.7mb 83f 67f
11:10pm  -   -   -  27 31 mph 1016.7mb 83f 68f
11:00pm  -   -   -  27 31 mph 1016.9mb - 68f
10:50pm 6.5ft 6s 5s 25 29 mph 1016.8mb 83f 68f
10:40pm  -   -   -  27 34 mph 1016.6mb 83f 68f
10:30pm  -   -   -  25 31 mph 1016.3mb 83f 68f
10:20pm  -   -   -  25 34 mph 1016.4mb 83f 69f
10:10pm  -   -   -  25 31 mph 1016.2mb 83f 69f
10:00pm  -   -   -  25 31 mph 1016.2mb 83f 69f
9:50pm 7ft 6s 5s 25 31 mph 1016mb 83f 69f
9:40pm  -   -   -  25 31 mph 1016mb 83f 69f
9:30pm  -   -   -  25 31 mph 1015.9mb 83f 69f
9:20pm  -   -   -  27 31 mph 1015.8mb 83f 69f
9:10pm  -   -   -  27 31 mph 1015.8mb - 69f
9:00pm  -   -   -  27 31 mph 1015.7mb 83f 69f
8:50pm 6ft 7s 5s 27 34 mph 1015.8mb 83f 69f
8:40pm  -   -   -  27 31 mph 1015.8mb 83f 70f
8:30pm  -   -   -  27 34 mph 1015.7mb 83f 69f
8:20pm  -   -   -  27 31 mph 1015.5mb 83f 69f
8:10pm  -   -   -  27 34 mph 1016.1mb 83f 70f
8:00pm  -   -   -  27 31 mph 1015.1mb 83f 70f
7:50pm 7ft 6s 5s 27 34 mph 1014.8mb 83f 70f
7:40pm 7ft  -  5s 27 34 mph 1014.7mb 83f 70f
7:30pm  -   -   -  27 34 mph 1014.7mb 83f 70f
7:20pm  -   -   -  27 34 mph 1014.4mb 83f 70f
7:10pm  -   -   -  27 34 mph 1014.2mb 83f 70f
7:00pm  -   -   -  27 34 mph 1013.9mb - 70f
6:50pm 7ft 6s 5s 27 34 mph 1014.1mb 83f 70f
6:40pm  -   -   -  27 34 mph 1013.9mb 83f 70f
6:30pm  -   -   -  27 34 mph 1013.7mb 83f 70f
6:20pm  -   -   -  27 34 mph 1013.6mb 83f 70f
6:10pm  -   -   -  29 36 mph 1013.5mb 83f 70f
6:00pm  -   -   -  29 36 mph 1013.6mb 83f 71f
5:50pm 7ft 7s 5s 29 34 mph 1013.4mb 83f 71f
5:40pm  -   -   -  29 38 mph 1013.4mb 83f 71f
5:30pm  -   -   -  31 38 mph 1013.2mb 83f 71f
5:20pm  -   -   -  29 36 mph 1013.2mb 83f 72f
5:10pm  -   -   -  29 38 mph 1013.1mb 83f 72f
5:00pm  -   -   -  29 36 mph 1012.9mb 83f 73f
3:50pm 7ft 6s 5s 27 34 mph 1012.3mb 83f 75f
3:40pm  -   -   -  27 31 mph 1012.3mb 83f 75f
3:30pm  -   -   -  25 29 mph 1012.4mb 83f 75f
3:20pm  -   -   -  22 27 mph 1012.5mb 83f 76f
3:10pm  -   -   -  20 29 mph 1012.4mb 83f 76f
3:00pm  -   -   -  22 29 mph 1012.2mb 83f 75f
2:50pm 3.5ft 6s 4s 25 34 mph 1012mb 83f 75f
2:40pm  -   -   -  27 36 mph 1012.4mb 83f 76f
2:30pm  -   -   -  27 38 mph 1012mb 84f 76f
2:20pm  -   -   -  25 31 mph 1012.6mb 84f 77f
2:10pm  -   -   -  9 25 mph 1012.5mb 84f 82f
2:00pm  -   -   -  2 4 mph 1012.2mb - 85f
1:50pm 3.5ft 6s 5s 2 4 mph 1012.7mb 84f 85f
1:40pm  -   -   -  4 7 mph 1012.5mb 84f 85f
1:30pm  -   -   -  7 9 mph 1012.5mb 84f 85f
1:20pm  -   -   -  7 9 mph 1012.4mb 84f 85f
1:10pm  -   -   -  7 9 mph 1012.4mb 84f 85f
1:00pm  -   -   -  7 9 mph 1012.6mb - 85f
12:50pm 3.5ft 6s 5s 9 11 mph 1012.5mb 84f 85f
12:40pm  -   -   -  9 11 mph 1012.7mb 83f 85f
12:30pm  -   -   -  9 11 mph 1012.8mb 83f 85f
12:20pm  -   -   -  9 11 mph 1012.7mb 83f 85f
12:10pm  -   -   -  11 13 mph 1012.8mb 83f 85f
12:00pm  -   -   -  9 11 mph 1013mb 83f 85f
11:50am 3.5ft 6s 5s 11 13 mph 1013.1mb 83f 85f
11:40am  -   -   -  11 13 mph 1013.2mb 83f 85f
11:30am  -   -   -  11 11 mph 1013.3mb 83f 85f
11:20am  -   -   -  9 13 mph 1013.4mb - 85f
11:10am  -   -   -  9 11 mph 1013.4mb 83f 85f
11:00am  -   -   -  9 9 mph 1013.3mb 83f 85f
10:50am 3.5ft 6s 5s 9 9 mph 1013.2mb 83f 85f
10:40am  -   -   -  9 9 mph 1013mb 83f 85f
10:30am  -   -   -  9 11 mph 1012.9mb 83f 84f
10:20am  -   -   -  9 11 mph 1012.7mb 83f 84f
10:10am  -   -   -  9 11 mph 1012.4mb 83f 84f
10:00am  -   -   -  11 13 mph 1012.2mb - 84f
9:50am 3.5ft 6s 5s 11 13 mph 1012.1mb 83f 84f
9:40am 3.5ft  -  5s 11 16 mph 1012.1mb 83f 84f
9:30am  -   -   -  11 16 mph 1012.1mb 83f 84f
9:20am  -   -   -  11 13 mph 1012.1mb 83f 84f
9:10am  -   -   -  11 13 mph 1012mb 83f 84f
9:00am  -   -   -  11 16 mph 1011.8mb 83f 84f
8:50am 3.5ft 6s 5s 11 16 mph 1011.7mb 83f 84f
8:40am  -   -   -  13 16 mph 1011.6mb 83f 84f
8:30am  -   -   -  13 16 mph 1011.4mb 83f 84f
8:20am  -   -   -  13 16 mph 1011.3mb 83f 84f
8:10am  -   -   -  13 16 mph 1011.2mb 83f 84f
8:00am  -   -   -  13 16 mph 1011.1mb - 84f
7:50am 3.5ft 6s 5s 13 16 mph 1011.1mb 83f 84f
7:40am  -   -   -  13 16 mph 1011mb 83f 84f
7:30am  -   -   -  13 16 mph 1010.9mb 83f 84f
7:20am  -   -   -  13 16 mph 1010.7mb 83f 84f
7:10am  -   -   -  13 16 mph 1010.8mb 83f 84f
7:00am  -   -   -  13 16 mph 1010.8mb 83f 84f
6:50am 3.5ft 6s 5s 13 16 mph 1010.8mb 83f 84f
6:40am  -   -   -  13 18 mph 1010.6mb 83f 84f
6:30am  -   -   -  13 18 mph 1010.5mb 83f 84f
6:20am  -   -   -  13 18 mph 1010.5mb 83f 84f
6:10am  -   -   -  13 18 mph 1010.3mb 83f 84f
6:00am  -   -   -  13 16 mph 1010.2mb - 84f
5:50am 4ft 6s 5s 13 18 mph 1010.2mb 83f 84f
5:40am  -   -   -  13 18 mph 1010.2mb 83f 84f
5:30am  -   -   -  16 18 mph 1010.2mb 83f 84f
5:20am  -   -   -  13 18 mph 1010.3mb 83f 84f
5:10am  -   -   -  16 18 mph 1010.2mb 83f 84f
5:00am  -   -   -  13 18 mph 1010.3mb 83f 84f
4:50am 4ft 6s 5s 16 20 mph 1010.3mb 83f 84f
4:40am  -   -   -  13 16 mph 1010.3mb 83f 84f
4:30am  -   -   -  13 16 mph 1010.4mb 83f 84f
4:20am  -   -   -  13 18 mph 1010.3mb 83f 84f
4:10am  -   -   -  16 20 mph 1010.4mb 83f 84f
4:00am  -   -   -  16 18 mph 1010.4mb 83f 84f
3:20am  -   -   -  13 18 mph 1010.4mb 83f 84f
3:10am  -   -   -  13 18 mph 1010.5mb 83f 84f
3:00am  -   -   -  16 18 mph 1010.5mb 83f 84f
2:50am 4.5ft 6s 5s 16 20 mph 1010.5mb 83f 84f
2:40am  -   -   -  18 20 mph 1010.3mb 83f 84f
2:30am  -   -   -  18 22 mph 1010.4mb 83f 84f
2:20am  -   -   -  18 22 mph 1010.3mb 83f 84f
2:10am  -   -   -  18 22 mph 1010.5mb 83f 84f
2:00am  -   -   -  16 20 mph 1010.6mb 83f 84f
1:20am  -   -   -  18 22 mph 1010.6mb 83f 84f
1:10am  -   -   -  18 22 mph 1010.6mb 83f 84f
1:00am  -   -   -  18 22 mph 1010.8mb 83f -
12:50am 4ft 6s 5s 18 22 mph 1010.8mb 83f 84f
12:40am  -   -   -  18 22 mph 1010.7mb 83f 84f
12:30am  -   -   -  18 22 mph 1010.7mb 83f 84f
12:20am  -   -   -  18 20 mph 1010.8mb 83f 84f
12:10am  -   -   -  18 22 mph 1010.8mb 83f 84f
12:00am  -   -   -  16 20 mph 1010.8mb 83f 84f
Sun 10/14 11:50pm 4.5ft 6s 5s 16 20 mph 1010.9mb 83f 84f
11:40pm 4.5ft  -  5s 16 22 mph 1011mb 83f 84f
11:30pm  -   -   -  16 20 mph 1010.8mb 83f 84f
11:20pm  -   -   -  18 22 mph 1010.9mb 83f 84f
11:10pm  -   -   -  18 20 mph 1010.9mb 83f 84f
11:00pm  -   -   -  18 22 mph 1010.9mb 83f 84f
10:20pm  -   -   -  16 20 mph 1010.6mb 83f 84f
10:10pm  -   -   -  18 20 mph 1010.6mb 83f 84f
10:00pm  -   -   -  16 20 mph 1010.5mb 83f 84f
9:20pm  -   -   -  13 18 mph 1010.3mb - 84f
9:10pm  -   -   -  16 18 mph 1010.2mb 83f 84f
9:00pm  -   -   -  16 18 mph 1010mb 83f 84f
8:50pm 4ft 7s 5s 16 18 mph 1010mb - 84f
8:40pm 4ft  -  5s 13 18 mph 1009.8mb 83f 84f
8:30pm  -   -   -  13 18 mph 1009.9mb 83f 84f
8:20pm  -   -   -  13 16 mph 1009.7mb 83f 84f
8:10pm  -   -   -  13 18 mph 1009.6mb 83f 84f
8:00pm  -   -   -  13 18 mph 1009.5mb 83f 84f
7:50pm 4.5ft 6s 5s 13 16 mph 1009.4mb 83f 84f
7:40pm 4.5ft  -  5s 13 16 mph 1009.4mb 83f 84f
7:30pm  -   -   -  13 18 mph 1009.2mb 83f 84f
7:20pm  -   -   -  13 18 mph 1009.2mb 83f 84f
7:10pm  -   -   -  13 16 mph 1009.1mb 83f 84f
7:00pm  -   -   -  13 16 mph 1009.1mb 83f 84f
6:50pm 4.5ft 7s 5s 13 18 mph 1009.1mb 83f 84f
6:40pm 4.5ft  -  5s 11 16 mph 1009.1mb 83f 84f
6:30pm  -   -   -  11 16 mph 1009.1mb 83f 84f
6:20pm  -   -   -  13 16 mph 1009mb 83f 84f
6:10pm  -   -   -  13 16 mph 1008.9mb 83f 84f
6:00pm  -   -   -  13 18 mph 1008.9mb - 84f
5:50pm 4.5ft 6s 5s 13 18 mph 1008.9mb 83f 84f
5:40pm 4.5ft  -  5s 13 18 mph 1008.7mb 83f 84f
5:30pm  -   -   -  13 18 mph 1008.7mb 83f 84f
5:20pm  -   -   -  13 16 mph 1008.7mb 83f 84f
5:10pm  -   -   -  13 16 mph 1008.7mb 83f 84f
5:00pm  -   -   -  13 16 mph 1008.6mb - 84f
4:50pm 4.5ft 7s 5s 13 16 mph 1008.7mb 83f 84f
4:40pm  -   -   -  13 16 mph 1008.7mb 83f 84f
4:30pm  -   -   -  13 16 mph 1008.7mb 83f 84f
4:20pm  -   -   -  13 16 mph 1008.7mb 83f 84f
4:10pm  -   -   -  13 18 mph 1008.7mb 83f 84f
4:00pm  -   -   -  13 18 mph 1008.7mb 83f -
3:50pm 4.5ft 6s 5s 16 18 mph 1008.7mb 83f 84f
3:40pm  -   -   -  16 18 mph 1008.8mb 83f 84f
3:30pm  -   -   -  13 18 mph 1008.8mb 83f 84f
3:20pm  -   -   -  16 18 mph 1008.8mb 83f 84f
3:10pm  -   -   -  16 18 mph 1008.8mb - 84f
3:00pm  -   -   -  13 18 mph 1008.9mb 83f 84f
2:50pm 5ft 6s 5s 13 18 mph 1008.9mb 83f 84f
2:40pm 5ft  -  5s 16 20 mph 1009.1mb 83f 84f
2:30pm  -   -   -  16 18 mph 1009.2mb 83f 84f
2:20pm  -   -   -  16 18 mph 1009.3mb 83f 84f
2:10pm  -   -   -  16 18 mph 1009.4mb 83f 84f
2:00pm  -   -   -  13 18 mph 1009.5mb 83f 84f
1:50pm 4.5ft 7s 5s 13 18 mph 1009.6mb 83f 84f
1:40pm  -   -   -  16 18 mph 1009.7mb 83f 84f
1:30pm  -   -   -  13 18 mph 1009.8mb 83f 84f
1:20pm  -   -   -  16 18 mph 1010mb 83f 84f
1:10pm  -   -   -  13 18 mph 1010.1mb 83f 84f
1:00pm  -   -   -  13 18 mph 1010.2mb 83f 84f
12:50pm 5ft 6s 5s 16 18 mph 1010.3mb 83f 84f
12:40pm 5ft  -  5s 16 18 mph 1010.4mb 83f 84f
12:30pm  -   -   -  16 18 mph 1010.5mb - 84f
12:20pm  -   -   -  16 18 mph 1010.5mb 83f 84f
12:10pm  -   -   -  16 20 mph 1010.6mb 83f 84f
12:00pm  -   -   -  16 20 mph 1010.6mb 83f 84f
11:50am 5ft 7s 5s 16 20 mph 1010.6mb 83f 84f
11:40am 5ft  -  5s 18 20 mph 1010.6mb 83f 84f
11:30am  -   -   -  16 22 mph 1010.7mb - 84f
11:20am  -   -   -  16 20 mph 1010.7mb 83f 84f
11:10am  -   -   -  16 20 mph 1010.8mb 83f 84f
11:00am  -   -   -  16 20 mph 1010.8mb 83f 84f
10:50am 5ft 7s 5s 16 20 mph 1010.7mb 83f 84f
10:40am  -   -   -  18 20 mph 1010.7mb 83f 84f
10:30am  -   -   -  18 22 mph 1010.7mb 83f 84f
10:20am  -   -   -  18 22 mph 1010.6mb 83f 84f
10:10am  -   -   -  18 22 mph 1010.6mb 83f 84f
10:00am  -   -   -  18 22 mph 1010.5mb 83f 84f
9:50am 5ft 6s 5s 18 22 mph 1010.4mb 83f 84f
9:40am  -   -   -  18 22 mph 1010.4mb 83f 84f
9:30am  -   -   -  18 22 mph 1010.3mb 83f 84f
9:20am  -   -   -  20 22 mph 1010.1mb 83f 84f
9:10am  -   -   -  18 22 mph 1010mb 83f 84f
9:00am  -   -   -  18 20 mph 1010mb 83f 84f
8:10am  -   -   -  18 22 mph 1009.4mb 83f 83f
8:00am  -   -   -  20 25 mph 1009.3mb 83f 83f
7:50am 5.5ft 6s 5s 18 22 mph 1009.3mb - 83f
7:40am 5.5ft  -  5s 18 25 mph 1009.2mb 83f 83f
7:30am  -   -   -  18 22 mph 1009.3mb - 83f
7:20am  -   -   -  20 25 mph 1009.2mb 83f 83f
7:10am  -   -   -  18 25 mph 1009.1mb 83f 83f
7:00am  -   -   -  18 22 mph 1009.2mb 83f 83f
6:50am 5ft 6s 5s 18 22 mph 1009.2mb 83f 83f
6:40am  -   -   -  20 22 mph 1009.1mb 83f 83f
6:30am  -   -   -  18 22 mph 1009.1mb 83f 83f
6:20am  -   -   -  20 25 mph 1009mb 83f 83f
6:10am  -   -   -  20 22 mph 1008.9mb 83f 83f
6:00am  -   -   -  18 22 mph 1009mb 83f 83f
5:20am  -   -   -  20 25 mph 1008.6mb 83f 83f
5:10am  -   -   -  20 25 mph 1008.5mb 83f 83f
5:00am  -   -   -  20 25 mph 1008.5mb 83f 83f
3:50am 5.5ft 6s 5s 20 27 mph 1008.5mb 83f 83f
3:40am  -   -   -  20 25 mph 1008.5mb 83f 83f
3:30am  -   -   -  20 25 mph 1008.5mb 83f 83f
3:20am  -   -   -  22 27 mph 1008.4mb 83f 83f
3:10am  -   -   -  20 27 mph 1008.3mb 83f 83f
3:00am  -   -   -  20 25 mph 1008.4mb 83f 83f
2:50am 5ft 7s 5s 20 25 mph 1008.5mb 83f 83f
2:40am  -   -   -  20 27 mph 1008.6mb 83f 83f
2:30am  -   -   -  20 25 mph 1008.5mb 83f 83f
2:20am  -   -   -  22 27 mph 1008.4mb 83f 83f
2:10am  -   -   -  22 27 mph 1008.5mb 83f 83f
2:00am  -   -   -  22 27 mph 1008.4mb 83f -
1:50am 5.5ft 6s 5s 20 25 mph 1008.5mb 83f 83f
1:40am 5.5ft  -  5s 20 27 mph 1008.6mb 83f 83f
1:30am  -   -   -  20 25 mph 1008.6mb 83f 84f
1:20am  -   -   -  20 25 mph 1008.5mb 83f 83f
1:10am  -   -   -  20 25 mph 1008.6mb 83f 83f
1:00am  -   -   -  20 25 mph 1008.6mb - 84f
12:50am 5.5ft 7s 5s 20 25 mph 1008.6mb 83f 84f
12:40am 5.5ft  -  5s 20 25 mph 1008.6mb 83f 84f
12:30am  -   -   -  20 25 mph 1008.9mb 83f 84f
12:20am  -   -   -  18 25 mph 1008.8mb 83f 83f
12:10am  -   -   -  18 22 mph 1008.9mb 83f 83f
12:00am  -   -   -  20 25 mph 1008.9mb 83f 84f
Sat 10/13 11:50pm 5.5ft 6s 5s 20 25 mph 1008.8mb 83f 84f
11:40pm  -   -   -  20 25 mph 1008.7mb 83f 84f
11:30pm  -   -   -  20 22 mph 1008.8mb 83f 84f
11:20pm  -   -   -  18 22 mph 1008.8mb 83f 84f
11:10pm  -   -   -  22 25 mph 1008.6mb 83f 84f
11:00pm  -   -   -  22 25 mph 1008.4mb 83f 83f
10:50pm 5.5ft 6s 5s 20 27 mph 1008.5mb - 84f
10:40pm  -   -   -  22 27 mph 1008.4mb 83f 84f
10:30pm  -   -   -  22 27 mph 1008.2mb 83f 84f
10:20pm  -   -   -  22 29 mph 1008.1mb 83f 84f
10:10pm  -   -   -  22 27 mph 1008mb 83f 84f
10:00pm  -   -   -  22 27 mph 1007.9mb 83f 84f
9:50pm 5ft 7s 5s 22 27 mph 1007.8mb 83f 84f
9:40pm  -   -   -  20 27 mph 1007.8mb 83f 84f
9:30pm  -   -   -  20 27 mph 1007.9mb 83f 84f
9:20pm  -   -   -  22 27 mph 1007.9mb 83f 84f
9:10pm  -   -   -  20 25 mph 1007.8mb 83f 84f
9:00pm  -   -   -  20 25 mph 1007.8mb - 84f
8:50pm 6ft 7s 5s 20 25 mph 1007.8mb 83f 84f
8:40pm  -   -   -  20 25 mph 1007.8mb 83f 84f
8:30pm  -   -   -  20 25 mph 1007.8mb 83f 84f
8:20pm  -   -   -  20 25 mph 1007.8mb 83f 84f
8:10pm  -   -   -  20 25 mph 1007.5mb - 84f
8:00pm  -   -   -  20 25 mph 1007.5mb 83f -
7:50pm 6ft 7s 5s 20 25 mph 1007.5mb 83f 84f
7:40pm  -   -   -  20 25 mph 1007.5mb 83f 84f
7:30pm  -   -   -  20 25 mph 1007.5mb 83f 84f
7:20pm  -   -   -  20 25 mph 1007.5mb 83f 84f
7:10pm  -   -   -  18 25 mph 1007.6mb 83f 84f
7:00pm  -   -   -  18 22 mph 1007.6mb 83f 84f
6:50pm 6ft 6s 5s 18 25 mph 1007.5mb - 84f
6:40pm 6ft  -  5s 18 25 mph 1007.4mb 83f 84f
6:30pm  -   -   -  20 22 mph 1007.4mb 83f 84f
6:20pm  -   -   -  20 25 mph 1007.3mb 83f 84f
6:10pm  -   -   -  20 25 mph 1007.3mb 83f 84f
6:00pm  -   -   -  20 25 mph 1007.3mb 83f 84f
5:20pm  -   -   -  20 27 mph 1007.2mb 83f 84f
5:10pm  -   -   -  20 27 mph 1007.2mb 83f 84f
5:00pm  -   -   -  22 29 mph 1007.1mb - 84f
4:50pm 6.5ft 7s 5s 20 27 mph 1007.2mb 83f 84f
4:40pm  -   -   -  20 25 mph 1007.2mb 83f 84f
4:30pm  -   -   -  22 27 mph 1007.1mb 83f 84f
4:20pm  -   -   -  22 27 mph 1007.2mb 83f 84f
4:10pm  -   -   -  22 27 mph 1007.2mb 83f 84f
4:00pm  -   -   -  20 27 mph 1007.4mb 83f 84f
3:50pm 6ft 6s 5s 20 25 mph 1007.5mb 83f 84f
3:40pm  -   -   -  20 27 mph 1007.7mb 83f 84f
3:30pm  -   -   -  20 25 mph 1007.7mb 83f 84f
3:20pm  -   -   -  20 25 mph 1007.7mb 83f 84f
3:10pm  -   -   -  20 27 mph 1007.8mb 84f 84f
3:00pm  -   -   -  22 27 mph 1007.8mb 84f -